Location: Gugi
(45.4667°N, 11.1000°E)
Time: 08:40:18
(UTC+00:00)

Lacrosse 4 Rocket - Pass Details

Date: 17 November 2019
Orbit: 543 x 616 km, 68.0° (Epoch: 15 December)

Event Time Altitude Azimuth Distance (km) Brightness Sun altitude
Rises 16:50:48 0° 201° (SSW) 2,713 5.4 -11.8°
Reaches altitude 10° 16:53:01 10° 199° (SSW) 1,816 4.4 -12.2°
Maximum altitude 16:57:02 65° 117° (ESE) 603 1.3 -12.8°
Enters shadow 17:00:16 15° 38° (NE) 1,512 3.1 -13.4°
